Vernal, UT

5:59 PM MST on November 20, 2019 (GMT -0700)
Vernal

Weather History for KVEL - June, 2019

Change the Weather History Date:

Tuesday, June 11, 2019

  Actual Average Record
Temperature  
Mean Temperature 62 °F 64 °F  
Max Temperature 82 °F 79 °F 93 °F (1956)
Min Temperature 42 °F 49 °F 30 °F (1928)
Degree Days  
Heating Degree Days 3 3  
Month to date heating degree days 38 43  
Since 1 June heating degree days 38 43  
Since 1 July heating degree days 7519 7191  
Cooling Degree Days 0 2  
Month to date cooling degree days 3 17  
Year to date cooling degree days 4 26  
Since 1 June cooling degree days 3 17  
Growing Degree Days 12 (Base 50)    
Moisture  
Dew Point 30 °F    
Average Humidity 30    
Maximum Humidity 62    
Minimum Humidity 14    
Precipitation  
Precipitation 0.00 in 0.03 in 1.30 in (1965)
Month to date precipitation T 0.33  
Year to date precipitation 7.42 3.74  
Sea Level Pressure  
Sea Level Pressure 30.10 in    
Wind  
Wind Speed 4 mph ()    
Max Wind Speed 14 mph    
Max Gust Speed 20 mph    
Visibility 10.0 miles    
Events      
T = Trace of Precipitation, MM = Missing Value Source: Averaged Metar Reports

Daily Weather History Graph

Daily Weather History Graph

Search for Another Location

Airport or City:

Astronomy

Jun. 11, 2019 Rise Set
Actual Time 5:47 AM MDT 8:48 PM MDT
Civil Twilight 5:14 AM MDT 9:21 PM MDT
Nautical Twilight 4:32 AM MDT 10:03 PM MDT
Astronomical Twilight 3:43 AM MDT 10:52 PM MDT
Moon 2:50 PM MDT (6/11) 2:34 AM MDT (6/11)
Length of Visible Light 16h 06m
Length of Day
15h 00m
Waxing Gibbous, 67% of the Moon is Illuminated
Jun 11
Waxing Gibbous
Jun 17
Full
Jun 25
Last Quarter
Jul 2
New
Jul 9
First Quarter

Hourly Weather History & Observations

Time (MDT) Temp. Windchill Dew Point Humidity Pressure Visibility Wind Dir Wind Speed Gust Speed Precip Events Conditions
12:53 AM 54.0 °F - 36.0 °F 51% 30.11 in 10.0 mi NNW 3.5 mph - N/A   Clear
1:53 AM 51.1 °F - 30.0 °F 44% 30.11 in 10.0 mi WSW 3.5 mph - N/A   Clear
2:53 AM 53.1 °F - 21.9 °F 30% 30.11 in 10.0 mi WNW 9.2 mph - N/A   Clear
3:53 AM 48.9 °F - 27.0 °F 43% 30.11 in 10.0 mi Calm Calm - N/A   Clear
4:53 AM 46.0 °F 44.8 °F 28.0 °F 50% 30.14 in 10.0 mi Variable 3.5 mph - N/A   Clear
5:53 AM 43.0 °F 41.3 °F 30.9 °F 62% 30.17 in 10.0 mi SW 3.5 mph - N/A   Clear
6:53 AM 48.9 °F - 34.0 °F 56% 30.17 in 10.0 mi Calm Calm - N/A   Clear
7:53 AM 59.0 °F - 28.0 °F 31% 30.16 in 10.0 mi NNE 3.5 mph - N/A   Clear
8:53 AM 63.0 °F - 32.0 °F 31% 30.17 in 10.0 mi Calm Calm - N/A   Clear
9:53 AM 66.0 °F - 32.0 °F 28% 30.18 in 10.0 mi Variable 3.5 mph - N/A   Clear
10:53 AM 70.0 °F - 30.0 °F 23% 30.16 in 10.0 mi Variable 4.6 mph - N/A   Clear
11:53 AM 73.9 °F - 27.0 °F 18% 30.14 in 10.0 mi Variable 3.5 mph - N/A   Clear
12:53 PM 75.9 °F - 25.0 °F 15% 30.12 in 10.0 mi Variable 4.6 mph - N/A   Clear
1:53 PM 77.0 °F - 26.1 °F 15% 30.09 in 10.0 mi Variable 3.5 mph - N/A   Clear
2:53 PM 79.0 °F - 26.1 °F 14% 30.06 in 10.0 mi Variable 3.5 mph - N/A   Clear
3:53 PM 80.1 °F - 27.0 °F 14% 30.06 in 10.0 mi ESE 8.1 mph - N/A   Clear
4:53 PM 81.0 °F - 27.0 °F 14% 30.04 in 10.0 mi East 6.9 mph - N/A   Clear
5:53 PM 82.0 °F - 30.0 °F 15% 30.04 in 10.0 mi ENE 6.9 mph - N/A   Clear
6:53 PM 80.1 °F - 30.9 °F 17% 30.03 in 10.0 mi ENE 3.5 mph - N/A   Clear
7:53 PM 78.1 °F - 33.1 °F 19% 30.01 in 10.0 mi ENE 3.5 mph - N/A   Clear
8:53 PM 73.0 °F - 37.9 °F 28% 30.01 in 10.0 mi North 9.2 mph - N/A   Clear
9:53 PM 71.1 °F - 37.0 °F 29% 30.04 in 10.0 mi NNE 11.5 mph - N/A   Clear
10:53 PM 69.1 °F - 37.0 °F 31% 30.05 in 10.0 mi North 11.5 mph - N/A   Clear
11:53 PM 66.9 °F - 37.9 °F 34% 30.06 in 10.0 mi NE 4.6 mph - N/A   Clear